Tracking 29892 objects as of 21-Nov-2024
HD Live streaming from Space Station
objects crossing your sky now

ONEWEB-0665

Track ONEWEB-0665 now!
10-day predictions
ONEWEB-0665 is classified as:


NORAD ID: 55825
Int'l Code: 2023-029AF
Perigee: 1,211.5 km
Apogee: 1,214.3 km
Inclination: 87.9 °
Period: 109.5 minutes
Semi major axis: 7583 km
RCS: Unknown
Launch date: March 9, 2023
Source: United Kingdom (UK)
Launch site: AIR FORCE EASTERN TEST RANGE (AFETR)
Your satellite tracking list
Your tracking list is empty




NASA's NSSDC Master Catalog

Two Line Element Set (TLE):
1 55825U 23029AF  24325.61086599  .00000101  00000-0  23844-3 0  9997
2 55825  87.9033  43.7810 0001815  92.0539 268.0798 13.14503881 84054
Source of the keplerian elements: AFSPC